This is the latest recevied weather packets stored in our database for station/object N3TJJ-2. If no packets are shown the sender has not sent any weather packets the latest 10 day(s).
| Time | Temp. | Humidity | Pressure | Rain* | Wind** | Luminosity | Snow |
|---|---|---|---|---|---|---|---|
| 1787889305 | 18.89° C | 29% | 1016.8 hPa | 2.79 mm | - | - | - |
| 1787888940 | 18.89° C | 30% | 1017 hPa | 2.79 mm | - | - | - |
| 1787888566 | 18.89° C | 30% | 1017 hPa | 2.79 mm | - | - | - |
| 1787888202 | 18.89° C | 30% | 1017.2 hPa | 2.79 mm | - | - | - |
| 1787887841 | 18.89° C | 29% | 1017.3 hPa | 2.79 mm | - | - | - |
| 1787887536 | 18.89° C | 30% | 1017.4 hPa | 2.54 mm | - | - | - |
| 1787887131 | 18.89° C | 31% | 1017.9 hPa | 0.51 mm | - | - | - |
| 1787886797 | 18.89° C | 31% | 1017.6 hPa | 0 mm | - | - | - |
| 1787886402 | 18.89° C | 31% | 1017.3 hPa | 0.25 mm | - | - | - |
| 1787886057 | 18.89° C | 31% | 1017.6 hPa | 0.25 mm | - | - | - |
| 1787885697 | 18.89° C | 31% | 1017.4 hPa | 0.25 mm | - | - | - |
| 1787885364 | 18.89° C | 31% | 1016.7 hPa | 0.25 mm | - | - | - |
| 1787884970 | 18.89° C | 31% | 1016.6 hPa | 0.25 mm | - | - | - |
| 1787884604 | 19.44° C | 31% | 1016.2 hPa | 0.51 mm | - | - | - |
| 1787884242 | 19.44° C | 30% | 1016.4 hPa | 1.02 mm | - | - | - |
| 1787883881 | 19.44° C | 30% | 1016.5 hPa | 2.03 mm | - | - | - |
| 1787883781 | 19.44° C | 29% | 1017.2 hPa | 8.38 mm | - | - | - |
| 1787883367 | 19.44° C | 31% | 1016.7 hPa | 13.97 mm | - | - | - |
| 1787882824 | 20° C | 29% | 1016.3 hPa | 13.97 mm | - | - | - |
| 1787882442 | 20.56° C | 28% | 1016.3 hPa | 13.97 mm | - | - | - |
| 1787882083 | 21.11° C | 27% | 1016.7 hPa | 14.22 mm | - | - | - |
| 1787881732 | 21.11° C | 27% | 1016.4 hPa | 14.22 mm | - | - | - |
| 1787881380 | 20.56° C | 28% | 1015.6 hPa | 14.48 mm | - | - | - |
| 1787881025 | 20.56° C | 29% | 1016.2 hPa | 18.03 mm | - | - | - |
| 1787880642 | 20.56° C | 29% | 1016.4 hPa | 24.38 mm | - | - | - |
* Rain latest hour (hover to see other rain measurements)
** Current wind speed in m/s (hover to see current wind gust speed)